World > North America > United States > New Jersey

Dorchester, New Jersey Regional Weather

Lat: 39.27N, Lon: 74.98W
Wx Zone: NJZ021
Feedback

Dorchester, NJ Regional Weather

Expires:201910141400;;696193
ASUS41 KOKX 141314
RWROKX

Regional Weather Roundup
National Weather Service New York NY
900 AM EDT MON OCT 14 2019

Note: "FAIR" indicates few or no clouds below 12,000 feet with no
significant weather and/or obstructions to visibility.


NJZ001-105-106-008-010-013-015-019>022-104-141400-
New Jersey
  
CITY           SKY/WX    TMP DP  RH WIND       PRES   REMARKS
Newark/Liberty CLOUDY    61  54  77 W7        30.01R                  
Teterboro      CLOUDY    62  53  72 VRB3      30.00R                  
Caldwell       CLOUDY    60  54  80 VRB3      30.01R                  
Somerville     CLOUDY    58  54  86 MISG      30.00R                  
Linden         CLOUDY    59  54  83 CALM      30.01R                  
Perth Amboy      N/A     59 N/A N/A W6          N/A                   
Sussex         PTSUNNY   53  49  86 CALM      30.00R                  
Andover          N/A     57  53  86 S3        30.01R                  
Trenton        CLOUDY    58  55  90 SW3       30.01R                  
Millville      CLOUDY    60  58  92 NW5       30.03R                  
Atlantic City  CLOUDY    59  58  96 W3        30.02R FOG              
Wrightstown    CLOUDY    59  56  89 NW3       30.01                   
Toms River     CLOUDY   N/A N/A N/A CALM      30.02R                  
Belmar         CLOUDY    58  57  97 W3        30.02R                  
$$
 

SKY/WX - Weather  TMP - Temperature  DP - Dew Point  RH - Relative Humidity
WIND - Wind Direction/Speed PRES - Barometric Pressure VSB - Visibility
WCI - Wind Chill Index E13G22 Wind - East Wind 13 mph/Gusts of 22 mph